Flag for Germany Weather past 2 weeks in Pirmasens, Rhineland-Palatinate, Germany

Now
57 °F

Sunny.


Feels Like: 56 °F
Forecast: 41 / 54 °F
Wind: 7 mph from Northwest

Location: Zweibrucken - Rheinland-Pfalz

Current Time: Sep 21, 2014 at 9:11:27 PM

Latest Report: Sep 21, 2014 at 8:20 PM


Visibility: 10 mi

Pressure: 30.07 "Hg

Humidity: 88%

Dew point: 54 °F

Location of PirmasensLocation

Historic Weather in Pirmasens — Graph

°F

Pirmasens temperature yesterday

Maximum temperature yesterday: 72 °F (at 2:20 PM)
Minimum temperature yesterday: 59 °F (at 8:50 AM)
Average temperature yesterday: 65 °F

Past Weeks' High & Low Weather Summary

 TemperatureHumidityPressure
High79 °F (Sep 17, 3:20 PM)100% (Sep 7, 3:50 AM)30.18 "Hg (Sep 7, 3:50 AM)
Low46 °F (Sep 12, 5:20 AM)53% (Sep 7, 2:50 PM)29.86 "Hg (Sep 17, 4:20 PM)
Average62 °F83%30.02 "Hg
* Reported Sep 6 7:20 PM — Sep 21 7:50 PM, Pirmasens, Weather by CustomWeather, © 2014

Note: Actual official high and low records may vary slightly from our data, if they occured in-between our weather recording intervals... More about our weather records

Advertising

Pirmasens weather history for previous 24 hours

 ConditionsComfort  
Time TempWeatherWind HumidityBarometerVisibility
7:50 PM
Sep 21
57 °FSunny.6 mph88%30.07 "Hg10 mi
7:20 PM57 °FScattered clouds.9 mph88%30.04 "HgN/A
6:50 PM57 °FLight rain. Passing clouds.8 mph94%30.04 "HgN/A
6:20 PM57 °FLight rain. Scattered clouds.8 mph94%30.04 "HgN/A
5:50 PM59 °FLight rain. Broken clouds.9 mph94%30.04 "HgN/A
5:20 PM59 °FLight rain. Fog.6 mph94%30.01 "Hg2 mi
4:50 PM57 °FLight rain. Partly sunny.5 mph100%30.01 "Hg4 mi
4:20 PM57 °FSprinkles. Partly sunny.7 mph94%30.01 "Hg5 mi
3:50 PM61 °FSprinkles. Broken clouds.8 mph94%30.01 "Hg5 mi
3:20 PM63 °FPartly sunny.9 mph88%29.98 "HgN/A
2:50 PM63 °FBroken clouds.9 mph88%29.98 "HgN/A
2:20 PM63 °FPartly sunny.9 mph88%30.01 "HgN/A
1:50 PM63 °FScattered showers. Broken clouds.7 mph88%30.01 "HgN/A
1:20 PM63 °FSprinkles. Partly sunny.5 mph88%30.01 "HgN/A
12:50 PM63 °FPartly sunny.5 mph88%30.01 "HgN/A
12:20 PM63 °FCloudy.7 mph88%30.01 "HgN/A
11:50 AM61 °FCloudy.6 mph94%30.01 "HgN/A
11:20 AM61 °FBroken clouds.7 mph94%30.01 "Hg6 mi
10:50 AM61 °FPartly sunny.9 mph88%30.01 "HgN/A
10:20 AM61 °FPartly sunny.7 mph94%30.01 "HgN/A
9:50 AM61 °FPartly sunny.9 mph94%30.01 "HgN/A
9:20 AM59 °FPartly sunny.8 mph100%30.01 "Hg5 mi
8:50 AM59 °FFog.7 mph100%30.01 "Hg4 mi
3:50 AM57 °FSprinkles. Partly cloudy.2 mph100%30.01 "HgN/A
3:20 AM57 °FPartly cloudy.1 mph100%29.98 "HgN/A
12:50 AM59 °FThunderstorms. Passing clouds.20 mph94%30.01 "HgN/A
10:20 PM
Sep 20
64 °FClear.7 mph88%30.01 "Hg10 mi
9:50 PM64 °FClear.2 mph88%30.01 "Hg10 mi
9:20 PM64 °FThundershowers. Clear.6 mph88%30.01 "HgN/A
Weather by CustomWeather, © 2014

See weather overviewHow to use our weather pages